OV1-9 R/B, 2622

Orbit data source: Space-Track

OV1-9 R/B, 2622 is space debris in LEO originally from a launch on Sun, 11 Dec 1966 UTC launched from the Air Force Western Test Range (AFWTR). Debris objects in space refer to the collection of defunct objects orbiting the Earth. Examples of debris include non-operational satellites, rocket bodies, and fragments generated from explosions, collisions, or faulty payload assembly.

Loading next visibility...
Identifier
2622, 1966-111D
Orbit
LEO
Country
Flag of USUS
Related business
Manufacturer
ABL
Mission
Spacecraft
Bus & Motor
ALTAIR, Unknown motor
Mass
125 kg wet, 125 kg dry
Launch date (UTC)
1966-12-11 (59 years ago)
Launch vehicle
Unknown
Launch site
Air Force Western Test Range (AFWTR)
Object type
Payload
Rocket body
Debris
Shape & HBR
Unknown
Radar Cross Section
Medium (>0.1 m² and <1 m²)

Expand to show TLE details & history
Last TLE update: 13 hours ago

TLE from 13 hours ago
0 OV1-9 R/B
1  2622U 66111D   26131.08432032  .00000349  00000-0  14074-3 0  9997
2  2622  99.1150  68.6060 2220242 117.9729 266.3355 10.49863198241001
Epoch: 2026-05-11T02:01Z
TLE epoch observation values (Epoch: 2026-05-11T02:01:25.275Z)
Latitude
-0.00009°
Longitude
169.37258°
Altitude
2,970.527 km
Speed
6.329 km/s
True Right ascension
04h 34m 25s
True Declination
0° 00' 00"
Sunlit
Object was in daylight at epoch
Visualization orbit readout
Latitude
Unknown
Longitude
Unknown
Altitude
Unknown
Speed
Unknown
Apparent Right ascension
Unknown
Apparent Declination
Unknown
Sunlit
N/A
Visualization observer readout
Local Sidereal Time
23:23:23
Azimuth
Unknown
Elevation
Unknown
Doppler factor
Unknown
Orbital elements
Apogee altitude
4,384.959 km
Perigee altitude
473.96 km
Semi-major axis
8,807.596 km
Eccentricity
0.22202
Inclination
99.115°
RAAN
68.606°
Arg. of periapsis
117.9729°
True anomaly
242.12595°
Mean anomaly
266.3355°
Eccentric anomaly
254.10108°
Mean motion
2.62577 °/min
Orbital period
137.1 mins
BSTAR
0.00014074
Loading maneuver chart data...
Computing Atmospheric mass density...
Loading historical data...
Loading historical data...
Loading historical data...
Loading historical data...
Loading historical data...
Loading historical data...
Loading historical data...
Other satellites on launch #111 in the year 1966 (1966-12-11 UTC)

Documentation

Showing up to 5 results
|